Theta_e
331 331 331 333 332 331 336 340 339 337 336 328 324 322 320 319 320 316 312 309 307 306
330 330 330 329 331 331 332 337 334 333 327 323 321 320 320 318 314 312 311 308 308 305
323 331 330 330 331 334 334 329 325 322 319 317 318 318 318 314 312 310 308 306 305 302
318 325 328 329 331 329 329 326 323 319 317 317 318 318 314 312 310 308 306 305 302 301
321 325 326 328 329 327 322 320 318 317 317 318 316 314 313 309 307 305 303 302 300 300
324 324 324 327 327 325 324 321 319 318 317 317 314 310 308 306 304 302 301 300 299 298
322 324 325 321 318 317 318 317 318 317 314 311 308 306 305 303 302 302 301 301 301 300
322 322 321 319 317 317 315 315 313 311 310 309 306 305 301 301 299 298 298 299 302 303
320 319 317 316 315 314 312 311 309 307 306 304 305 303 304 303 299 298 296 295 297 299
316 310 309 309 309 308 306 306 305 304 304 302 302 300 300 300 296 296 296 295 296 298
308 306 306 304 304 304 304 303 302 302 300 299 299 298 297 298 297 296 295 295 294 295
306 305 303 302 302 302 301 299 299 298 297 296 295 296 296 297 296 294 294 295 296 295
306 305 303 301 301 300 298 297 297 295 295 297 295 295 295 296 296 293 294 295 295 298
305 302 300 299 299 298 297 297 297 296 296 297 297 296 295 295 295 295 295 294 294 294
Wind_Speed
6 5 4 3 3 4 6 8 11 9 4 7 9 10 10 6 4 4 6 7 6 4
4 6 5 4 3 4 3 4 9 9 13 11 6 9 14 8 7 6 6 6 6 4
4 5 2 3 3 4 3 10 13 13 15 13 12 11 12 2 10 9 6 6 7 6
6 4 2 5 5 4 4 8 11 16 17 16 14 16 14 9 11 9 8 6 9 7
4 4 5 6 7 7 9 9 11 12 18 13 12 13 14 13 9 8 7 8 8 7
7 6 7 8 9 6 9 7 7 11 15 13 11 13 13 14 12 8 10 6 6 4
6 7 9 10 11 11 11 13 11 11 15 18 19 17 16 16 14 9 8 5 5 5
5 6 10 12 13 13 14 14 15 19 17 19 18 14 16 13 10 5 4 3 4 5
7 7 9 11 13 14 14 15 16 18 17 19 15 25 18 10 6 6 4 4 5 5
10 11 10 11 12 12 16 16 17 17 16 18 17 28 19 15 7 6 4 6 6 6
12 13 12 13 15 13 14 17 15 14 14 15 13 25 20 17 10 7 8 6 4 6
12 13 14 14 14 13 15 16 13 13 14 13 14 22 18 17 11 9 8 6 7 6
12 15 14 15 14 14 15 14 11 13 12 15 14 12 15 14 10 9 6 7 7 13
12 13 14 15 14 15 16 15 12 12 8 8 9 10 14 13 9 6 6 5 5 5
Wind_Direction
234 233 234 219 234 238 222 200 186 181 202 119 114 116 105 92 97 93 93 93 81 87
260 236 233 247 193 250 234 144 121 141 125 110 106 123 113 117 94 82 75 74 71 76
313 262 227 152 135 166 163 130 125 122 112 107 122 109 83 69 81 83 67 65 78 62
339 330 142 124 141 118 127 139 136 132 125 127 140 119 112 101 88 96 91 95 90 74
353 80 116 115 128 123 113 108 112 126 122 126 106 126 113 100 102 95 99 82 79 79
46 57 82 97 110 105 100 91 106 124 113 108 106 83 86 82 69 69 64 44 78 93
61 85 100 93 92 94 101 104 103 94 96 89 88 77 68 75 70 50 53 24 42 78
83 74 101 103 102 103 103 100 104 103 95 94 88 83 80 75 77 78 64 49 55 49
95 81 82 96 106 107 97 101 99 96 97 97 98 97 98 93 76 57 24 42 35 39
95 91 87 93 91 98 106 99 96 100 104 104 106 99 93 101 96 86 61 42 30 50
109 108 102 99 99 99 102 101 102 101 105 105 112 108 108 103 100 90 62 53 48 53
116 109 110 104 101 106 99 95 96 98 96 104 108 104 117 114 102 80 62 50 50 62
117 117 115 110 105 104 96 94 99 100 100 103 104 111 100 95 93 89 77 55 48 56
113 112 111 110 111 110 108 111 110 102 105 122 121 120 103 94 94 101 98 83 60 52